Time,TemperatureF,DewpointF,PressureIn,WindDirection,WindDirectionDegrees,WindSpeedMPH,WindSpeedGustMPH,Humidity,HourlyPrecipIn,Conditions,Clouds,dailyrainin,SoftwareType,DateUTC
2013-09-04 00:12:00,79.0,69.0,29.96,SE,131,0.0,5.0,71,0.00,,,0.00,,2013-09-04 05:12:00,
2013-09-04 00:23:00,78.0,69.0,29.96,ENE,63,1.0,4.0,73,0.00,,,0.00,,2013-09-04 05:23:00,
2013-09-04 00:43:00,78.0,69.0,29.95,ENE,76,1.0,3.0,73,0.00,,,0.00,,2013-09-04 05:43:00,
2013-09-04 00:52:00,78.0,69.0,29.95,NE,45,1.0,4.0,73,0.00,,,0.00,,2013-09-04 05:52:00,
2013-09-04 01:12:00,77.0,68.0,29.95,NE,45,0.0,2.0,74,0.00,,,0.00,,2013-09-04 06:12:00,
2013-09-04 01:22:00,77.0,68.0,29.95,NNE,32,3.0,4.0,75,0.00,,,0.00,,2013-09-04 06:22:00,
2013-09-04 01:42:00,77.0,68.0,29.95,NE,38,1.0,4.0,74,0.00,,,0.00,,2013-09-04 06:42:00,
2013-09-04 01:52:00,77.0,68.0,29.95,NNE,32,1.0,4.0,75,0.00,,,0.00,,2013-09-04 06:52:00,
2013-09-04 02:11:00,76.0,67.0,29.95,NE,53,3.0,5.0,74,0.00,,,0.00,,2013-09-04 07:11:00,
2013-09-04 02:22:00,76.0,66.0,29.95,NE,46,3.0,4.0,72,0.00,,,0.00,,2013-09-04 07:22:00,
2013-09-04 02:42:00,76.0,66.0,29.94,NE,45,1.0,5.0,72,0.00,,,0.00,,2013-09-04 07:42:00,
2013-09-04 02:52:00,76.0,67.0,29.94,NE,45,1.0,3.0,73,0.00,,,0.00,,2013-09-04 07:52:00,
2013-09-04 03:12:00,75.0,66.0,29.95,NE,45,0.0,0.0,73,0.00,,,0.00,,2013-09-04 08:12:00,
2013-09-04 03:22:00,74.0,66.0,29.94,NE,45,2.0,4.0,75,0.00,,,0.00,,2013-09-04 08:22:00,
2013-09-04 03:43:00,74.0,66.0,29.94,NE,45,2.0,3.0,77,0.00,,,0.00,,2013-09-04 08:43:00,
2013-09-04 03:52:00,74.0,66.0,29.94,NNE,17,1.0,4.0,76,0.00,,,0.00,,2013-09-04 08:52:00,
2013-09-04 04:12:00,72.0,65.0,29.95,NNE,17,0.0,2.0,80,0.00,,,0.00,,2013-09-04 09:12:00,
2013-09-04 04:22:00,72.0,65.0,29.95,North,5,1.0,3.0,80,0.00,,,0.00,,2013-09-04 09:22:00,
2013-09-04 04:43:00,71.0,65.0,29.95,North,5,0.0,2.0,82,0.00,,,0.00,,2013-09-04 09:43:00,
2013-09-04 04:53:00,71.0,66.0,29.96,North,5,0.0,1.0,83,0.00,,,0.00,,2013-09-04 09:53:00,
2013-09-04 05:12:00,71.0,66.0,29.96,North,5,0.0,3.0,84,0.00,,,0.00,,2013-09-04 10:12:00,
2013-09-04 05:23:00,71.0,66.0,29.96,North,355,3.0,4.0,84,0.00,,,0.00,,2013-09-04 10:23:00,
2013-09-04 05:42:00,71.0,65.0,29.96,NNW,347,2.0,4.0,82,0.00,,,0.00,,2013-09-04 10:42:00,
2013-09-04 05:52:00,71.0,65.0,29.96,NNW,344,2.0,5.0,80,0.00,,,0.00,,2013-09-04 10:52:00,
2013-09-04 06:12:00,71.0,65.0,29.97,North,355,4.0,6.0,80,0.00,,,0.00,,2013-09-04 11:12:00,
2013-09-04 06:22:00,71.0,65.0,29.97,NNE,12,5.0,7.0,80,0.00,,,0.00,,2013-09-04 11:22:00,
2013-09-04 06:52:00,71.0,65.0,29.98,North,350,3.0,6.0,81,0.00,,,0.00,,2013-09-04 11:52:00,
2013-09-04 07:12:00,71.0,65.0,29.99,North,355,3.0,6.0,81,0.00,,,0.00,,2013-09-04 12:12:00,
2013-09-04 07:21:00,70.0,64.0,29.99,North,351,4.0,6.0,82,0.00,,,0.00,,2013-09-04 12:21:00,
2013-09-04 07:42:00,70.0,64.0,30.00,NNW,345,2.0,7.0,82,0.00,,,0.00,,2013-09-04 12:42:00,
2013-09-04 07:52:00,71.0,65.0,30.01,North,355,2.0,5.0,82,0.00,,,0.00,,2013-09-04 12:52:00,
2013-09-04 08:12:00,71.0,65.0,30.01,North,5,2.0,5.0,82,0.00,,,0.00,,2013-09-04 13:12:00,
2013-09-04 08:22:00,72.0,66.0,30.01,North,11,3.0,6.0,81,0.00,,,0.00,,2013-09-04 13:22:00,
2013-09-04 08:52:00,74.0,67.0,30.02,NE,36,7.0,10.0,78,0.00,,,0.00,,2013-09-04 13:52:00,
2013-09-04 09:11:00,75.0,67.0,30.03,NNE,17,5.0,8.0,76,0.00,,,0.00,,2013-09-04 14:11:00,
2013-09-04 09:21:00,77.0,68.0,30.03,NNE,32,6.0,9.0,74,0.00,,,0.00,,2013-09-04 14:21:00,
2013-09-04 09:42:00,78.0,68.0,30.03,NE,43,6.0,9.0,72,0.00,,,0.00,,2013-09-04 14:42:00,
2013-09-04 09:52:00,78.0,68.0,30.04,ENE,58,4.0,8.0,72,0.00,,,0.00,,2013-09-04 14:52:00,
2013-09-04 10:12:00,81.0,69.0,30.04,NNE,12,5.0,7.0,67,0.00,,,0.00,,2013-09-04 15:12:00,
2013-09-04 10:22:00,82.0,69.0,30.05,NE,54,5.0,7.0,64,0.00,,,0.00,,2013-09-04 15:22:00,
2013-09-04 10:43:00,84.0,70.0,30.05,NNE,26,4.0,9.0,63,0.00,,,0.00,,2013-09-04 15:43:00,
2013-09-04 10:53:00,84.0,69.0,30.05,ENE,67,2.0,7.0,61,0.00,,,0.00,,2013-09-04 15:53:00,
2013-09-04 11:12:00,86.0,69.0,30.05,NNE,30,4.0,10.0,57,0.00,,,0.00,,2013-09-04 16:12:00,
2013-09-04 11:23:00,88.0,69.0,30.05,ENE,67,4.0,8.0,54,0.00,,,0.00,,2013-09-04 16:23:00,
2013-09-04 11:43:00,88.0,69.0,30.05,NNE,14,3.0,11.0,53,0.00,,,0.00,,2013-09-04 16:43:00,
2013-09-04 11:53:00,90.0,69.0,30.05,ENE,69,6.0,12.0,50,0.00,,,0.00,,2013-09-04 16:53:00,
2013-09-04 12:13:00,90.0,70.0,30.04,SE,128,1.0,11.0,52,0.00,,,0.00,,2013-09-04 17:13:00,
2013-09-04 12:23:00,90.0,69.0,30.04,North,5,3.0,7.0,50,0.00,,,0.00,,2013-09-04 17:23:00,
2013-09-04 12:42:00,91.0,69.0,30.03,NE,36,3.0,8.0,48,0.00,,,0.00,,2013-09-04 17:42:00,
2013-09-04 12:52:00,92.0,71.0,30.03,NE,38,4.0,7.0,50,0.00,,,0.00,,2013-09-04 17:52:00,
2013-09-04 13:13:00,93.0,70.0,30.02,ENE,65,6.0,11.0,48,0.00,,,0.00,,2013-09-04 18:13:00,
2013-09-04 13:22:00,92.0,68.0,30.02,NE,46,3.0,8.0,46,0.00,,,0.00,,2013-09-04 18:22:00,
2013-09-04 13:42:00,93.0,69.0,30.01,NNE,19,4.0,7.0,46,0.00,,,0.00,,2013-09-04 18:42:00,
2013-09-04 13:52:00,93.0,69.0,30.01,North,355,5.0,9.0,46,0.00,,,0.00,,2013-09-04 18:52:00,
2013-09-04 14:11:00,94.0,67.0,30.01,ENE,61,4.0,10.0,42,0.00,,,0.00,,2013-09-04 19:11:00,
2013-09-04 14:22:00,94.0,67.0,30.00,NNW,336,3.0,10.0,42,0.00,,,0.00,,2013-09-04 19:22:00,
2013-09-04 14:42:00,95.0,69.0,29.99,North,351,7.0,10.0,43,0.00,,,0.00,,2013-09-04 19:42:00,
2013-09-04 14:52:00,95.0,67.0,29.99,NNE,19,1.0,9.0,40,0.00,,,0.00,,2013-09-04 19:52:00,
2013-09-04 15:11:00,95.0,68.0,29.99,North,5,7.0,15.0,41,0.00,,,0.00,,2013-09-04 20:11:00,
2013-09-04 15:22:00,96.0,67.0,29.98,NNE,21,3.0,8.0,39,0.00,,,0.00,,2013-09-04 20:22:00,
2013-09-04 15:43:00,96.0,67.0,29.97,NE,39,5.0,10.0,39,0.00,,,0.00,,2013-09-04 20:43:00,
2013-09-04 15:53:00,95.0,67.0,29.97,North,5,8.0,12.0,40,0.00,,,0.00,,2013-09-04 20:53:00,
2013-09-04 16:12:00,95.0,66.0,29.96,ENE,57,0.0,8.0,39,0.00,,,0.00,,2013-09-04 21:12:00,
2013-09-04 16:22:00,94.0,65.0,29.96,North,349,7.0,12.0,39,0.00,,,0.00,,2013-09-04 21:22:00,
2013-09-04 16:44:00,95.0,66.0,29.95,ENE,57,4.0,9.0,39,0.00,,,0.00,,2013-09-04 21:44:00,
2013-09-04 16:54:00,96.0,65.0,29.95,NE,36,7.0,12.0,37,0.00,,,0.00,,2013-09-04 21:54:00,
2013-09-04 17:14:00,96.0,66.0,29.94,NNE,29,10.0,14.0,38,0.00,,,0.00,,2013-09-04 22:14:00,
2013-09-04 17:23:00,96.0,66.0,29.95,NNE,24,8.0,12.0,38,0.00,,,0.00,,2013-09-04 22:23:00,
2013-09-04 17:54:00,95.0,65.0,29.95,North,355,6.0,11.0,38,0.00,,,0.00,,2013-09-04 22:54:00,
2013-09-04 18:13:00,94.0,66.0,29.95,North,5,8.0,14.0,40,0.00,,,0.00,,2013-09-04 23:13:00,
2013-09-04 18:22:00,94.0,66.0,29.96,ENE,57,8.0,11.0,40,0.00,,,0.00,,2013-09-04 23:22:00,
2013-09-04 18:42:00,93.0,66.0,29.96,NNE,22,8.0,14.0,41,0.00,,,0.00,,2013-09-04 23:42:00,
2013-09-04 18:52:00,92.0,66.0,29.97,NNE,30,10.0,13.0,42,0.00,,,0.00,,2013-09-04 23:52:00,
2013-09-04 19:12:00,91.0,66.0,29.96,NNE,17,8.0,12.0,44,0.00,,,0.00,,2013-09-05 00:12:00,
2013-09-04 19:22:00,90.0,66.0,29.97,NNE,25,8.0,14.0,45,0.00,,,0.00,,2013-09-05 00:22:00,
2013-09-04 19:42:00,90.0,66.0,29.97,NNE,31,7.0,10.0,45,0.00,,,0.00,,2013-09-05 00:42:00,
2013-09-04 19:52:00,89.0,65.0,29.98,NE,36,6.0,10.0,46,0.00,,,0.00,,2013-09-05 00:52:00,
2013-09-04 20:12:00,88.0,65.0,29.98,NE,34,5.0,8.0,47,0.00,,,0.00,,2013-09-05 01:12:00,
2013-09-04 20:22:00,87.0,65.0,29.99,NNE,25,3.0,6.0,48,0.00,,,0.00,,2013-09-05 01:22:00,
2013-09-04 20:42:00,86.0,65.0,29.99,NNE,29,4.0,7.0,50,0.00,,,0.00,,2013-09-05 01:42:00,
2013-09-04 20:52:00,85.0,65.0,30.00,NNE,33,4.0,6.0,52,0.00,,,0.00,,2013-09-05 01:52:00,
2013-09-04 21:12:00,84.0,65.0,30.00,NNE,32,4.0,7.0,53,0.00,,,0.00,,2013-09-05 02:12:00,
2013-09-04 21:22:00,83.0,65.0,30.01,NNE,30,5.0,7.0,54,0.00,,,0.00,,2013-09-05 02:22:00,
2013-09-04 22:12:00,81.0,65.0,30.01,NNE,26,5.0,6.0,59,0.00,,,0.00,,2013-09-05 03:12:00,
2013-09-04 22:22:00,81.0,66.0,30.02,NNE,23,5.0,8.0,60,0.00,,,0.00,,2013-09-05 03:22:00,
2013-09-04 22:45:00,81.0,66.0,30.02,NNE,28,5.0,8.0,60,0.00,,,0.00,,2013-09-05 03:45:00,
2013-09-04 22:54:00,80.0,65.0,30.03,NNE,30,5.0,7.0,60,0.00,,,0.00,,2013-09-05 03:54:00,
2013-09-04 23:13:00,80.0,65.0,30.03,NNE,17,5.0,7.0,60,0.00,,,0.00,,2013-09-05 04:13:00,
2013-09-04 23:24:00,79.0,64.0,30.03,NNE,19,4.0,7.0,61,0.00,,,0.00,,2013-09-05 04:24:00,
2013-09-04 23:44:00,79.0,65.0,30.03,NNE,19,4.0,8.0,62,0.00,,,0.00,,2013-09-05 04:44:00,
2013-09-04 23:53:00,79.0,65.0,30.03,NNE,13,3.0,6.0,63,0.00,,,0.00,,2013-09-05 04:53:00,